| time (UTC) | temp F | wind direction | speed MPH | gust MPH | rain 1hr in | rain 24hr in | rain mn in | humidity % | barometer mb |
| 20260906102706 | 74 | 146 | 0.0 | 0.0 | 0.00 | 0.00 | 0.00 | 76 | 1011.0 |
| 20260906101205 | 74 | 146 | 0.0 | 0.0 | 0.00 | 0.00 | 0.00 | 75 | 1011.0 |
| 20260906095704 | 75 | 146 | 0.0 | 0.0 | 0.00 | 0.00 | 0.00 | 73 | 1010.9 |
| 20260906092703 | 77 | 147 | 0.0 | 0.0 | 0.00 | 0.00 | 0.00 | 69 | 1010.9 |
| 20260906091201 | 78 | 146 | 0.0 | 0.0 | 0.00 | 0.00 | 0.00 | 68 | 1010.8 |
| 20260906085701 | 78 | 147 | 0.0 | 0.0 | 0.00 | 0.00 | 0.00 | 67 | 1010.9 |
| 20260906084200 | 78 | 146 | 0.0 | 1.0 | 0.00 | 0.00 | 0.00 | 68 | 1010.7 |
| 20260906082659 | 78 | 146 | 0.0 | 0.0 | 0.00 | 0.00 | 0.00 | 69 | 1010.6 |
| 20260906081158 | 77 | 146 | 0.0 | 0.0 | 0.00 | 0.00 | 0.00 | 69 | 1010.7 |
| 20260906075656 | 78 | 147 | 0.0 | 0.0 | 0.00 | 0.00 | 0.00 | 67 | 1010.7 |
| 20260906071154 | 79 | 149 | 0.0 | 0.0 | 0.00 | 0.00 | 0.00 | 65 | 1010.5 |
| 20260906065653 | 79 | 149 | 0.0 | 0.0 | 0.00 | 0.00 | 0.00 | 65 | 1010.5 |
| 20260906064152 | 79 | 149 | 0.0 | 0.0 | 0.00 | 0.00 | 0.00 | 63 | 1010.5 |
| 20260906061150 | 81 | 149 | 0.0 | 0.0 | 0.00 | 0.00 | 0.00 | 61 | 1010.4 |
| 20260906055649 | 80 | 149 | 0.0 | 0.0 | 0.00 | 0.00 | 0.00 | 62 | 1010.4 |
| 20260906054148 | 81 | 150 | 0.0 | 0.0 | 0.00 | 0.00 | 0.00 | 60 | 1010.5 |
| 20260906052647 | 82 | 149 | 0.0 | 0.0 | 0.00 | 0.00 | 0.00 | 58 | 1010.6 |
| 20260906045645 | 86 | 149 | 0.0 | 0.0 | 0.00 | 0.00 | 0.00 | 53 | 1010.5 |
| 20260906044144 | 86 | 149 | 0.0 | 1.0 | 0.00 | 0.00 | 0.00 | 53 | 1010.3 |
| 20260906041142 | 86 | 143 | 0.0 | 3.0 | 0.00 | 0.00 | 0.00 | 53 | 1010.3 |
| 20260906035641 | 86 | 140 | 0.0 | 1.0 | 0.00 | 0.00 | 0.00 | 53 | 1010.3 |
| 20260906032639 | 87 | 140 | 0.0 | 1.0 | 0.00 | 0.00 | 0.00 | 51 | 1010.1 |
| 20260906031138 | 87 | 134 | 0.0 | 3.0 | 0.00 | 0.00 | 0.00 | 51 | 1010.0 |
| 20260906025637 | 87 | 145 | 0.0 | 1.0 | 0.00 | 0.00 | 0.00 | 50 | 1009.9 |
| 20260906024136 | 88 | 136 | 0.0 | 1.0 | 0.00 | 0.00 | 0.00 | 49 | 1009.8 |
| 20260906022635 | 88 | 147 | 0.0 | 1.0 | 0.00 | 0.00 | 0.00 | 50 | 1009.5 |
| 20260906021134 | 87 | 136 | 0.0 | 1.0 | 0.00 | 0.00 | 0.00 | 50 | 1009.4 |
| 20260906015633 | 86 | 139 | 0.0 | 0.0 | 0.00 | 0.00 | 0.00 | 52 | 1009.3 |
| 20260906014132 | 87 | 139 | 0.0 | 0.0 | 0.00 | 0.00 | 0.00 | 51 | 1009.2 |
| 20260906012631 | 88 | 139 | 0.0 | 0.0 | 0.00 | 0.00 | 0.00 | 50 | 1009.0 |
| 20260906011131 | 90 | 138 | 0.0 | 0.0 | 0.00 | 0.00 | 0.00 | 46 | 1008.7 |
| 20260906005630 | 92 | 139 | 0.0 | 0.0 | 0.00 | 0.00 | 0.00 | 44 | 1008.6 |
| 20260906004129 | 93 | 146 | 0.0 | 1.0 | 0.00 | 0.00 | 0.00 | 43 | 1008.6 |
| 20260906002628 | 94 | 142 | 0.0 | 2.0 | 0.00 | 0.00 | 0.00 | 41 | 1008.4 |
| 20260906001127 | 95 | 134 | 0.0 | 5.0 | 0.00 | 0.00 | 0.00 | 39 | 1008.5 |
| 20260905235626 | 96 | 139 | 0.0 | 2.0 | 0.00 | 0.00 | 0.00 | 38 | 1008.7 |
| 20260905234125 | 97 | 136 | 0.0 | 5.0 | 0.00 | 0.00 | 0.00 | 37 | 1008.6 |
| 20260905225622 | 101 | 145 | 0.0 | 6.0 | 0.00 | 0.00 | 0.00 | 33 | 1008.6 |
| 20260905224121 | 101 | 155 | 1.0 | 7.0 | 0.00 | 0.00 | 0.00 | 33 | 1008.6 |
| 20260905222620 | 102 | 142 | 4.0 | 6.0 | 0.00 | 0.00 | 0.00 | 33 | 1008.5 |
| 20260905221119 | 102 | 194 | 0.0 | 4.0 | 0.00 | 0.00 | 0.00 | 33 | 1008.3 |
| 20260905215618 | 102 | 183 | 3.0 | 10.0 | 0.00 | 0.00 | 0.00 | 34 | 1008.4 |
| 20260905214117 | 102 | 145 | 3.0 | 6.0 | 0.00 | 0.00 | 0.00 | 34 | 1008.2 |
| 20260905212616 | 102 | 188 | 0.0 | 6.0 | 0.00 | 0.00 | 0.00 | 35 | 1008.5 |
| 20260905205614 | 102 | 183 | 0.0 | 5.0 | 0.00 | 0.00 | 0.00 | 35 | 1008.8 |
| 20260905204113 | 101 | 65 | 0.0 | 6.0 | 0.00 | 0.00 | 0.00 | 37 | 1009.0 |
| 20260905202612 | 102 | 187 | 2.0 | 5.0 | 0.00 | 0.00 | 0.00 | 35 | 1009.3 |
| 20260905195610 | 100 | 131 | 0.0 | 6.0 | 0.00 | 0.00 | 0.00 | 38 | 1009.8 |
| 20260905194109 | 102 | 210 | 0.0 | 6.0 | 0.00 | 0.00 | 0.00 | 37 | 1010.0 |
| 20260905192609 | 102 | 138 | 0.0 | 7.0 | 0.00 | 0.00 | 0.00 | 37 | 1010.2 |
| 20260905191108 | 101 | 131 | 0.0 | 5.0 | 0.00 | 0.00 | 0.00 | 38 | 1010.2 |
| 20260905185606 | 100 | 159 | 0.0 | 6.0 | 0.00 | 0.00 | 0.00 | 39 | 1010.5 |
| 20260905184105 | 100 | 139 | 0.0 | 6.0 | 0.00 | 0.00 | 0.00 | 39 | 1010.7 |
| 20260905182605 | 100 | 143 | 0.0 | 6.0 | 0.00 | 0.00 | 0.00 | 40 | 1010.9 |
| 20260905175603 | 100 | 110 | 2.0 | 5.0 | 0.00 | 0.00 | 0.00 | 41 | 1011.0 |
| 20260905174102 | 99 | 142 | 3.0 | 4.0 | 0.00 | 0.00 | 0.00 | 41 | 1011.1 |
| 20260905172601 | 98 | 203 | 0.0 | 3.0 | 0.00 | 0.00 | 0.00 | 42 | 1011.3 |
| 20260905165559 | 97 | 218 | 0.0 | 5.0 | 0.00 | 0.00 | 0.00 | 44 | 1011.5 |
| 20260905164058 | 97 | 186 | 0.0 | 6.0 | 0.00 | 0.00 | 0.00 | 44 | 1011.5 |
| 20260905162557 | 96 | 218 | 0.0 | 5.0 | 0.00 | 0.00 | 0.00 | 46 | 1011.5 |
| 20260905155555 | 94 | 134 | 0.0 | 5.0 | 0.00 | 0.00 | 0.00 | 49 | 1011.5 |
| 20260905154054 | 93 | 176 | 0.0 | 2.0 | 0.00 | 0.00 | 0.00 | 50 | 1011.5 |
| 20260905152553 | 92 | 104 | 2.0 | 6.0 | 0.00 | 0.00 | 0.00 | 52 | 1011.4 |
| 20260905145551 | 89 | 145 | 4.0 | 4.0 | 0.00 | 0.00 | 0.00 | 58 | 1011.3 |
| 20260905142549 | 86 | 156 | 1.0 | 5.0 | 0.00 | 0.00 | 0.00 | 62 | 1011.2 |
| 20260905141048 | 84 | 115 | 0.0 | 6.0 | 0.00 | 0.00 | 0.00 | 64 | 1011.0 |
| 20260905132546 | 80 | 162 | 0.0 | 6.0 | 0.00 | 0.00 | 0.00 | 71 | 1011.0 |
| 20260905131044 | 79 | 129 | 4.0 | 4.0 | 0.00 | 0.00 | 0.00 | 73 | 1010.9 |
| 20260905125544 | 78 | 162 | 0.0 | 2.0 | 0.00 | 0.00 | 0.00 | 74 | 1010.7 |
| 20260905124042 | 77 | 140 | 0.0 | 0.0 | 0.00 | 0.00 | 0.00 | 75 | 1010.6 |
| 20260905122542 | 77 | 131 | 0.0 | 0.0 | 0.00 | 0.00 | 0.00 | 75 | 1010.5 |
| 20260905121040 | 76 | 150 | 0.0 | 0.0 | 0.00 | 0.00 | 0.00 | 76 | 1010.4 |
| 20260905115540 | 76 | 145 | 0.0 | 1.0 | 0.00 | 0.00 | 0.00 | 76 | 1010.3 |
| 20260905114039 | 77 | 197 | 0.0 | 0.0 | 0.00 | 0.00 | 0.00 | 74 | 1010.5 |
| 20260905112538 | 77 | 129 | 0.0 | 0.0 | 0.00 | 0.00 | 0.00 | 74 | 1010.3 |
| 20260905105536 | 77 | 147 | 0.0 | 0.0 | 0.00 | 0.00 | 0.00 | 75 | 1010.2 |